Location: Il Ritiro
(43.4167°N, 13.1333°E)
Time: 01:25:50
(UTC+00:00)

USA 215 - Pass Details

Date: 05 July 2020
Orbit: 1102 x 1106 km, 123.0° (Epoch: 08 August)

Event Time Altitude Azimuth Distance (km) Brightness Sun altitude
Rises 20:57:53 0° 48° (NE) 3,925 6.3 -17.1°
Reaches altitude 10° 21:00:22 10° 48° (NE) 2,965 5.6 -17.3°
Maximum altitude 21:06:55 84° 323° (NW) 1,112 3.3 -17.9°
Drops below altitude 10° 21:13:28 10° 235° (SW) 2,953 5.4 -18.5°
Sets 21:15:56 0° 234° (SW) 3,909 6.1 -18.7°
